TimeMST,TemperatureF,Dew PointF,Humidity,Sea Level PressureIn,VisibilityMPH,Wind Direction,Wind SpeedMPH,Gust SpeedMPH,PrecipitationIn,Events,Conditions,WindDirDegrees,DateUTC
12:15 AM,20.7,16.2,83,30.32,10.0,WNW,5.8,-,N/A,,Clear,300,2013-01-19 07:15:00
12:35 AM,14.7,11.8,88,30.32,10.0,NNW,4.6,-,N/A,,Clear,330,2013-01-19 07:35:00
12:55 AM,15.4,12.7,89,30.33,10.0,NW,4.6,-,N/A,,Clear,310,2013-01-19 07:55:00
1:15 AM,14.7,12.6,91,30.33,10.0,NW,8.1,-,N/A,,Clear,310,2013-01-19 08:15:00
1:35 AM,17.1,14.0,88,30.33,10.0,NW,8.1,-,N/A,,Clear,320,2013-01-19 08:35:00
1:55 AM,15.6,12.9,89,30.34,10.0,NW,8.1,-,N/A,,Clear,310,2013-01-19 08:55:00
2:15 AM,16.5,13.3,87,30.35,10.0,WNW,6.9,-,N/A,,Clear,300,2013-01-19 09:15:00
2:35 AM,15.6,12.7,88,30.35,10.0,WNW,4.6,-,N/A,,Clear,300,2013-01-19 09:35:00
2:55 AM,14.9,12.2,89,30.35,10.0,WNW,4.6,-,N/A,,Clear,300,2013-01-19 09:55:00
3:15 AM,14.5,12.2,90,30.34,10.0,WNW,4.6,-,N/A,,Clear,300,2013-01-19 10:15:00
3:35 AM,14.9,12.6,90,30.34,10.0,NW,4.6,-,N/A,,Clear,310,2013-01-19 10:35:00
3:55 AM,14.5,11.8,89,30.34,10.0,NW,6.9,-,N/A,,Clear,320,2013-01-19 10:55:00
4:15 AM,13.1,10.4,89,30.34,10.0,WNW,5.8,-,N/A,,Clear,300,2013-01-19 11:15:00
4:35 AM,12.7,10.4,90,30.34,10.0,WNW,5.8,-,N/A,,Clear,290,2013-01-19 11:35:00
4:55 AM,12.2,9.9,90,30.35,10.0,NW,5.8,-,N/A,,Clear,320,2013-01-19 11:55:00
6:15 AM,11.8,9.3,90,30.35,10.0,WNW,4.6,-,N/A,,Clear,290,2013-01-19 13:15:00
6:55 AM,9.3,7.2,91,30.37,10.0,NW,5.8,-,N/A,,Clear,310,2013-01-19 13:55:00
7:15 AM,7.3,5.2,91,30.38,10.0,NNW,4.6,-,N/A,,Clear,330,2013-01-19 14:15:00
8:35 AM,18.3,13.8,83,30.40,10.0,NNW,6.9,-,N/A,,Clear,330,2013-01-19 15:35:00
8:55 AM,19.9,13.8,77,30.41,10.0,NW,9.2,-,N/A,,Clear,320,2013-01-19 15:55:00
9:15 AM,23.9,15.6,71,30.42,10.0,North,9.2,-,N/A,,Clear,350,2013-01-19 16:15:00
9:35 AM,27.1,16.0,63,30.43,10.0,North,5.8,-,N/A,,Clear,350,2013-01-19 16:35:00
10:15 AM,33.6,17.6,52,30.43,10.0,North,9.2,-,N/A,,Clear,350,2013-01-19 17:15:00
10:35 AM,37.4,18.9,47,30.42,10.0,NNW,8.1,-,N/A,,Clear,340,2013-01-19 17:35:00
10:55 AM,39.9,18.5,42,30.41,10.0,NNW,9.2,17.3,N/A,,Clear,330,2013-01-19 17:55:00
11:15 AM,42.1,18.5,39,30.40,10.0,NNW,8.1,-,N/A,,Clear,340,2013-01-19 18:15:00
11:35 AM,44.2,17.6,34,30.39,10.0,NNW,10.4,16.1,N/A,,Clear,330,2013-01-19 18:35:00
11:55 AM,45.3,16.3,31,30.38,10.0,NNW,12.7,-,N/A,,Clear,340,2013-01-19 18:55:00
12:15 PM,47.1,15.4,28,30.36,10.0,NNW,12.7,-,N/A,,Clear,330,2013-01-19 19:15:00
12:35 PM,48.2,13.8,25,30.35,10.0,NNW,15.0,18.4,N/A,,Clear,330,2013-01-19 19:35:00
12:55 PM,49.1,12.7,23,30.34,10.0,NNW,13.8,19.6,N/A,,Clear,340,2013-01-19 19:55:00
1:15 PM,49.1,12.4,23,30.34,10.0,NNW,11.5,16.1,N/A,,Clear,330,2013-01-19 20:15:00
1:35 PM,50.2,12.9,23,30.34,10.0,North,13.8,17.3,N/A,,Clear,350,2013-01-19 20:35:00
1:55 PM,50.7,12.9,22,30.33,10.0,NNW,11.5,-,N/A,,Clear,330,2013-01-19 20:55:00
2:15 PM,51.1,11.7,21,30.34,10.0,North,11.5,16.1,N/A,,Clear,360,2013-01-19 21:15:00
2:35 PM,51.3,5.9,16,30.34,10.0,NNW,10.4,-,N/A,,Clear,340,2013-01-19 21:35:00
2:55 PM,52.0,5.9,16,30.33,10.0,NNW,10.4,18.4,N/A,,Clear,340,2013-01-19 21:55:00
3:15 PM,51.6,4.1,15,30.34,10.0,North,10.4,-,N/A,,Clear,350,2013-01-19 22:15:00
3:35 PM,51.1,4.5,15,30.34,10.0,North,10.4,-,N/A,,Clear,350,2013-01-19 22:35:00
3:55 PM,50.4,3.0,14,30.34,10.0,North,10.4,-,N/A,,Clear,350,2013-01-19 22:55:00
4:15 PM,49.5,4.3,16,30.34,10.0,North,11.5,-,N/A,,Clear,360,2013-01-19 23:15:00
4:35 PM,48.2,3.0,16,30.33,10.0,North,9.2,-,N/A,,Clear,360,2013-01-19 23:35:00
4:55 PM,46.6,-0.2,14,30.33,10.0,North,10.4,-,N/A,,Clear,360,2013-01-19 23:55:00
5:15 PM,43.7,2.5,18,30.34,10.0,North,6.9,-,N/A,,Clear,350,2013-01-20 00:15:00
5:35 PM,35.6,1.9,24,30.34,10.0,NW,6.9,-,N/A,,Clear,320,2013-01-20 00:35:00
5:55 PM,35.8,5.9,29,30.35,10.0,WNW,8.1,-,N/A,,Clear,300,2013-01-20 00:55:00
6:15 PM,33.3,4.8,30,30.36,10.0,WNW,6.9,-,N/A,,Clear,300,2013-01-20 01:15:00
6:35 PM,27.3,5.2,39,30.37,10.0,NW,5.8,-,N/A,,Clear,310,2013-01-20 01:35:00
6:55 PM,28.9,9.7,45,30.37,10.0,NW,6.9,-,N/A,,Clear,320,2013-01-20 01:55:00
7:15 PM,27.7,8.4,44,30.38,10.0,NW,8.1,-,N/A,,Clear,320,2013-01-20 02:15:00
7:35 PM,26.4,8.1,46,30.38,10.0,NW,5.8,-,N/A,,Clear,310,2013-01-20 02:35:00
7:55 PM,25.5,8.8,49,30.38,10.0,NW,8.1,-,N/A,,Clear,310,2013-01-20 02:55:00
8:15 PM,24.4,9.0,52,30.38,10.0,NW,9.2,-,N/A,,Clear,310,2013-01-20 03:15:00
8:35 PM,23.5,9.0,54,30.38,10.0,NW,8.1,-,N/A,,Clear,310,2013-01-20 03:35:00
8:55 PM,24.3,9.1,53,30.38,10.0,NW,8.1,-,N/A,,Clear,310,2013-01-20 03:55:00
9:15 PM,22.1,9.0,57,30.38,10.0,WNW,6.9,-,N/A,,Clear,300,2013-01-20 04:15:00
9:35 PM,21.4,8.6,58,30.38,10.0,NW,6.9,-,N/A,,Clear,310,2013-01-20 04:35:00
9:55 PM,18.1,7.5,63,30.39,10.0,NW,6.9,-,N/A,,Clear,310,2013-01-20 04:55:00
10:15 PM,18.1,7.7,64,30.39,10.0,NW,8.1,-,N/A,,Clear,310,2013-01-20 05:15:00
10:35 PM,18.5,7.7,63,30.40,10.0,NW,9.2,-,N/A,,Clear,310,2013-01-20 05:35:00
10:55 PM,19.0,8.6,64,30.40,10.0,WNW,8.1,-,N/A,,Clear,300,2013-01-20 05:55:00
11:15 PM,17.4,8.4,68,30.39,10.0,NW,9.2,-,N/A,,Clear,310,2013-01-20 06:15:00
11:35 PM,15.4,7.5,71,30.39,10.0,WNW,8.1,-,N/A,,Clear,300,2013-01-20 06:35:00
11:55 PM,13.8,6.4,72,30.38,10.0,NW,8.1,-,N/A,,Clear,320,2013-01-20 06:55:00